Time,TemperatureF,DewpointF,PressureIn,WindDirection,WindDirectionDegrees,WindSpeedMPH,WindSpeedGustMPH,Humidity,HourlyPrecipIn,Conditions,Clouds,dailyrainin,SoftwareType,DateUTC
2013-09-02 00:03:00,64.3,59.7,30.21,NW,315,1.0,2.0,85,0.00,,,0.00,Weather View 32 v70,2013-09-02 05:03:00,
2013-09-02 00:08:00,64.0,59.4,30.21,NW,315,0.0,2.0,85,0.00,,,0.00,Weather View 32 v70,2013-09-02 05:08:00,
2013-09-02 00:13:00,63.8,59.2,30.21,NW,315,0.0,2.0,85,0.00,,,0.00,Weather View 32 v70,2013-09-02 05:13:00,
2013-09-02 00:18:00,63.4,59.1,30.21,NW,315,0.0,2.0,86,0.00,,,0.00,Weather View 32 v70,2013-09-02 05:18:00,
2013-09-02 00:23:00,63.1,59.2,30.21,NW,315,0.0,2.0,87,0.00,,,0.00,Weather View 32 v70,2013-09-02 05:23:00,
2013-09-02 00:28:00,62.8,59.2,30.21,NW,315,0.0,2.0,88,0.00,,,0.00,Weather View 32 v70,2013-09-02 05:28:00,
2013-09-02 00:33:00,62.6,59.3,30.21,NW,315,0.0,2.0,89,0.00,,,0.00,Weather View 32 v70,2013-09-02 05:33:00,
2013-09-02 00:38:00,62.4,59.1,30.21,NNE,22,2.0,3.0,89,0.00,,,0.00,Weather View 32 v70,2013-09-02 05:38:00,
2013-09-02 00:43:00,62.5,58.9,30.21,NNE,22,0.0,3.0,88,0.00,,,0.00,Weather View 32 v70,2013-09-02 05:43:00,
2013-09-02 00:48:00,62.4,58.8,30.21,NNE,22,0.0,3.0,88,0.00,,,0.00,Weather View 32 v70,2013-09-02 05:48:00,
2013-09-02 00:53:00,62.2,58.6,30.21,NNE,22,0.0,3.0,88,0.00,,,0.00,Weather View 32 v70,2013-09-02 05:53:00,
2013-09-02 00:58:00,61.9,58.3,30.21,NNE,22,0.0,3.0,88,0.00,,,0.00,Weather View 32 v70,2013-09-02 05:58:00,
2013-09-02 01:03:00,61.7,58.4,30.21,NE,45,0.0,3.0,89,0.00,,,0.00,Weather View 32 v70,2013-09-02 06:03:00,
2013-09-02 01:08:00,61.6,58.3,30.21,NE,45,0.0,3.0,89,0.00,,,0.00,Weather View 32 v70,2013-09-02 06:08:00,
2013-09-02 01:13:00,61.4,58.1,30.21,NE,45,0.0,3.0,89,0.00,,,0.00,Weather View 32 v70,2013-09-02 06:13:00,
2013-09-02 01:18:00,61.3,58.0,30.21,NE,45,0.0,3.0,89,0.00,,,0.00,Weather View 32 v70,2013-09-02 06:18:00,
2013-09-02 01:23:00,61.1,57.8,30.21,NE,45,0.0,3.0,89,0.00,,,0.00,Weather View 32 v70,2013-09-02 06:23:00,
2013-09-02 01:28:00,60.9,57.6,30.21,NE,45,0.0,3.0,89,0.00,,,0.00,Weather View 32 v70,2013-09-02 06:28:00,
2013-09-02 01:33:00,60.8,57.8,30.21,NE,45,0.0,3.0,90,0.00,,,0.00,Weather View 32 v70,2013-09-02 06:33:00,
2013-09-02 01:38:00,60.5,57.9,30.21,NE,45,0.0,3.0,91,0.00,,,0.00,Weather View 32 v70,2013-09-02 06:38:00,
2013-09-02 01:43:00,60.2,57.6,30.22,NE,45,0.0,2.0,91,0.00,,,0.00,Weather View 32 v70,2013-09-02 06:43:00,
2013-09-02 01:48:00,59.9,57.6,30.22,NE,45,0.0,2.0,92,0.00,,,0.00,Weather View 32 v70,2013-09-02 06:48:00,
2013-09-02 01:53:00,60.1,57.8,30.22,NE,45,0.0,2.0,92,0.00,,,0.00,Weather View 32 v70,2013-09-02 06:53:00,
2013-09-02 01:58:00,60.3,58.0,30.22,NE,45,0.0,2.0,92,0.00,,,0.00,Weather View 32 v70,2013-09-02 06:58:00,
2013-09-02 02:03:00,60.4,58.1,30.22,NE,45,1.0,2.0,92,0.00,,,0.00,Weather View 32 v70,2013-09-02 07:03:00,
2013-09-02 02:08:00,60.5,57.9,30.21,NE,45,0.0,2.0,91,0.00,,,0.00,Weather View 32 v70,2013-09-02 07:08:00,
2013-09-02 02:13:00,60.5,57.9,30.21,NE,45,0.0,2.0,91,0.00,,,0.00,Weather View 32 v70,2013-09-02 07:13:00,
2013-09-02 02:18:00,60.4,57.8,30.21,NE,45,0.0,2.0,91,0.00,,,0.00,Weather View 32 v70,2013-09-02 07:18:00,
2013-09-02 02:23:00,60.3,57.7,30.21,NE,45,1.0,2.0,91,0.00,,,0.00,Weather View 32 v70,2013-09-02 07:23:00,
2013-09-02 02:29:00,60.2,57.6,30.21,NE,45,0.0,2.0,91,0.00,,,0.00,Weather View 32 v70,2013-09-02 07:29:00,
2013-09-02 02:34:00,60.1,57.8,30.21,NE,45,0.0,2.0,92,0.00,,,0.00,Weather View 32 v70,2013-09-02 07:34:00,
2013-09-02 02:39:00,59.9,57.6,30.21,NE,45,0.0,2.0,92,0.00,,,0.00,Weather View 32 v70,2013-09-02 07:39:00,
2013-09-02 02:44:00,59.8,57.5,30.21,NE,45,0.0,2.0,92,0.00,,,0.00,Weather View 32 v70,2013-09-02 07:44:00,
2013-09-02 02:49:00,59.6,57.6,30.21,NE,45,0.0,2.0,93,0.00,,,0.00,Weather View 32 v70,2013-09-02 07:49:00,
2013-09-02 02:54:00,59.4,57.7,30.21,NE,45,1.0,2.0,94,0.00,,,0.00,Weather View 32 v70,2013-09-02 07:54:00,
2013-09-02 02:59:00,59.3,57.3,30.21,NE,45,0.0,2.0,93,0.00,,,0.00,Weather View 32 v70,2013-09-02 07:59:00,
2013-09-02 03:04:00,59.1,57.4,30.21,NE,45,0.0,2.0,94,0.00,,,0.00,Weather View 32 v70,2013-09-02 08:04:00,
2013-09-02 03:09:00,58.9,57.5,30.22,NE,45,1.0,2.0,95,0.00,,,0.00,Weather View 32 v70,2013-09-02 08:09:00,
2013-09-02 03:14:00,58.8,57.4,30.22,NE,45,1.0,2.0,95,0.00,,,0.00,Weather View 32 v70,2013-09-02 08:14:00,
2013-09-02 03:19:00,58.6,57.2,30.22,NE,45,0.0,2.0,95,0.00,,,0.00,Weather View 32 v70,2013-09-02 08:19:00,
2013-09-02 03:24:00,58.4,57.3,30.22,NE,45,0.0,2.0,96,0.00,,,0.00,Weather View 32 v70,2013-09-02 08:24:00,
2013-09-02 03:29:00,58.3,57.4,30.22,NE,45,0.0,2.0,97,0.00,,,0.00,Weather View 32 v70,2013-09-02 08:29:00,
2013-09-02 03:34:00,58.3,57.7,30.22,NE,45,0.0,2.0,98,0.00,,,0.00,Weather View 32 v70,2013-09-02 08:34:00,
2013-09-02 03:39:00,58.3,57.7,30.22,NE,45,2.0,2.0,98,0.00,,,0.00,Weather View 32 v70,2013-09-02 08:39:00,
2013-09-02 03:44:00,58.4,57.8,30.22,NE,45,0.0,2.0,98,0.00,,,0.00,Weather View 32 v70,2013-09-02 08:44:00,
2013-09-02 03:49:00,58.4,57.8,30.22,NE,45,1.0,2.0,98,0.00,,,0.00,Weather View 32 v70,2013-09-02 08:49:00,
2013-09-02 03:54:00,58.4,57.5,30.22,NE,45,2.0,2.0,97,0.00,,,0.00,Weather View 32 v70,2013-09-02 08:54:00,
2013-09-02 03:59:00,58.3,57.4,30.22,NE,45,1.0,2.0,97,0.00,,,0.00,Weather View 32 v70,2013-09-02 08:59:00,
2013-09-02 04:04:00,58.2,57.3,30.22,NE,45,1.0,2.0,97,0.00,,,0.00,Weather View 32 v70,2013-09-02 09:04:00,
2013-09-02 04:09:00,58.1,57.0,30.22,NE,45,1.0,2.0,96,0.00,,,0.00,Weather View 32 v70,2013-09-02 09:09:00,
2013-09-02 04:14:00,58.1,57.0,30.22,NE,45,1.0,2.0,96,0.00,,,0.00,Weather View 32 v70,2013-09-02 09:14:00,
2013-09-02 04:19:00,57.9,56.2,30.22,NNE,22,2.0,2.0,94,0.00,,,0.00,Weather View 32 v70,2013-09-02 09:19:00,
2013-09-02 04:24:00,57.8,56.1,30.22,NNE,22,1.0,2.0,94,0.00,,,0.00,Weather View 32 v70,2013-09-02 09:24:00,
2013-09-02 04:29:00,57.6,55.9,30.22,NNE,22,2.0,2.0,94,0.00,,,0.00,Weather View 32 v70,2013-09-02 09:29:00,
2013-09-02 04:34:00,57.4,56.0,30.22,NNE,22,2.0,2.0,95,0.00,,,0.00,Weather View 32 v70,2013-09-02 09:34:00,
2013-09-02 04:39:00,57.1,55.7,30.22,NNE,22,2.0,2.0,95,0.00,,,0.00,Weather View 32 v70,2013-09-02 09:39:00,
2013-09-02 04:44:00,56.8,55.4,30.23,NNE,22,2.0,2.0,95,0.00,,,0.00,Weather View 32 v70,2013-09-02 09:44:00,
2013-09-02 04:49:00,56.3,54.6,30.23,NNE,22,1.0,2.0,94,0.00,,,0.00,Weather View 32 v70,2013-09-02 09:49:00,
2013-09-02 04:54:00,55.9,54.5,30.23,NNE,22,1.0,2.0,95,0.00,,,0.00,Weather View 32 v70,2013-09-02 09:54:00,
2013-09-02 05:00:00,55.7,54.6,30.23,North,360,1.0,3.0,96,0.00,,,0.00,Weather View 32 v70,2013-09-02 10:00:00,
2013-09-02 05:05:00,55.6,54.8,30.23,North,360,1.0,3.0,97,0.00,,,0.00,Weather View 32 v70,2013-09-02 10:05:00,
2013-09-02 05:10:00,55.6,54.8,30.23,North,360,1.0,3.0,97,0.00,,,0.00,Weather View 32 v70,2013-09-02 10:10:00,
2013-09-02 05:15:00,55.6,54.8,30.23,North,360,2.0,3.0,97,0.00,,,0.00,Weather View 32 v70,2013-09-02 10:15:00,
2013-09-02 05:20:00,55.8,55.0,30.23,North,360,1.0,3.0,97,0.00,,,0.00,Weather View 32 v70,2013-09-02 10:20:00,
2013-09-02 05:25:00,55.8,55.0,30.23,North,360,2.0,3.0,97,0.00,,,0.00,Weather View 32 v70,2013-09-02 10:25:00,
2013-09-02 05:30:00,55.8,55.0,30.23,North,360,1.0,3.0,97,0.00,,,0.00,Weather View 32 v70,2013-09-02 10:30:00,
2013-09-02 05:35:00,55.6,54.8,30.23,North,360,2.0,3.0,97,0.00,,,0.00,Weather View 32 v70,2013-09-02 10:35:00,
2013-09-02 05:40:00,55.3,54.5,30.23,North,360,2.0,3.0,97,0.00,,,0.00,Weather View 32 v70,2013-09-02 10:40:00,
2013-09-02 05:45:00,55.2,54.4,30.23,North,360,2.0,3.0,97,0.00,,,0.00,Weather View 32 v70,2013-09-02 10:45:00,
2013-09-02 05:50:00,54.8,54.0,30.23,North,360,1.0,3.0,97,0.00,,,0.00,Weather View 32 v70,2013-09-02 10:50:00,
2013-09-02 05:55:00,54.6,53.8,30.23,North,360,1.0,3.0,97,0.00,,,0.00,Weather View 32 v70,2013-09-02 10:55:00,
2013-09-02 06:00:00,54.4,53.6,30.23,North,360,1.0,2.0,97,0.00,,,0.00,Weather View 32 v70,2013-09-02 11:00:00,
2013-09-02 06:05:00,54.3,53.5,30.23,North,360,1.0,2.0,97,0.00,,,0.00,Weather View 32 v70,2013-09-02 11:05:00,
2013-09-02 06:10:00,54.5,53.7,30.24,North,360,0.0,2.0,97,0.00,,,0.00,Weather View 32 v70,2013-09-02 11:10:00,
2013-09-02 06:15:00,54.8,54.0,30.24,North,360,1.0,2.0,97,0.00,,,0.00,Weather View 32 v70,2013-09-02 11:15:00,
2013-09-02 06:20:00,55.1,54.3,30.24,North,360,0.0,2.0,97,0.00,,,0.00,Weather View 32 v70,2013-09-02 11:20:00,
2013-09-02 06:25:00,55.4,54.6,30.24,North,360,1.0,2.0,97,0.00,,,0.00,Weather View 32 v70,2013-09-02 11:25:00,
2013-09-02 06:30:00,55.6,54.8,30.24,North,360,1.0,2.0,97,0.00,,,0.00,Weather View 32 v70,2013-09-02 11:30:00,
2013-09-02 06:35:00,55.6,54.8,30.25,NNW,337,2.0,2.0,97,0.00,,,0.00,Weather View 32 v70,2013-09-02 11:35:00,
2013-09-02 06:40:00,55.7,54.9,30.25,NNW,337,1.0,3.0,97,0.00,,,0.00,Weather View 32 v70,2013-09-02 11:40:00,
2013-09-02 06:45:00,55.7,54.9,30.25,NNW,337,2.0,4.0,97,0.00,,,0.00,Weather View 32 v70,2013-09-02 11:45:00,
2013-09-02 06:50:00,55.4,54.6,30.25,NNW,337,2.0,4.0,97,0.00,,,0.00,Weather View 32 v70,2013-09-02 11:50:00,
2013-09-02 06:55:00,55.1,54.3,30.25,North,360,2.0,4.0,97,0.00,,,0.00,Weather View 32 v70,2013-09-02 11:55:00,
2013-09-02 07:00:00,54.5,53.7,30.25,North,360,0.0,4.0,97,0.00,,,0.00,Weather View 32 v70,2013-09-02 12:00:00,
2013-09-02 07:05:00,54.0,53.2,30.26,North,360,1.0,4.0,97,0.00,,,0.00,Weather View 32 v70,2013-09-02 12:05:00,
2013-09-02 07:10:00,53.7,52.9,30.26,North,360,2.0,4.0,97,0.00,,,0.00,Weather View 32 v70,2013-09-02 12:10:00,
2013-09-02 07:15:00,53.7,52.9,30.26,NNW,337,0.0,4.0,97,0.00,,,0.00,Weather View 32 v70,2013-09-02 12:15:00,
2013-09-02 07:20:00,53.6,52.8,30.26,North,360,1.0,4.0,97,0.00,,,0.00,Weather View 32 v70,2013-09-02 12:20:00,
2013-09-02 07:25:00,53.3,52.5,30.26,North,360,2.0,4.0,97,0.00,,,0.00,Weather View 32 v70,2013-09-02 12:25:00,
2013-09-02 07:30:00,53.1,52.3,30.26,North,360,2.0,4.0,97,0.00,,,0.00,Weather View 32 v70,2013-09-02 12:30:00,
2013-09-02 07:35:00,52.9,52.1,30.26,North,360,2.0,4.0,97,0.00,,,0.00,Weather View 32 v70,2013-09-02 12:35:00,
2013-09-02 07:40:00,52.9,52.1,30.26,North,360,1.0,4.0,97,0.00,,,0.00,Weather View 32 v70,2013-09-02 12:40:00,
2013-09-02 07:45:00,53.2,52.4,30.26,North,360,1.0,4.0,97,0.00,,,0.00,Weather View 32 v70,2013-09-02 12:45:00,
2013-09-02 07:50:00,53.5,52.7,30.26,North,360,1.0,4.0,97,0.00,,,0.00,Weather View 32 v70,2013-09-02 12:50:00,
2013-09-02 07:55:00,53.9,53.1,30.26,North,360,0.0,4.0,97,0.00,,,0.00,Weather View 32 v70,2013-09-02 12:55:00,
2013-09-02 08:01:00,54.7,53.9,30.26,North,360,0.0,2.0,97,0.00,,,0.00,Weather View 32 v70,2013-09-02 13:01:00,
2013-09-02 08:06:00,54.9,54.1,30.26,North,360,0.0,6.0,97,0.00,,,0.00,Weather View 32 v70,2013-09-02 13:06:00,
2013-09-02 08:11:00,55.1,54.3,30.26,North,360,1.0,6.0,97,0.00,,,0.00,Weather View 32 v70,2013-09-02 13:11:00,
2013-09-02 08:16:00,55.5,54.7,30.26,North,360,1.0,6.0,97,0.00,,,0.00,Weather View 32 v70,2013-09-02 13:16:00,
2013-09-02 08:21:00,55.6,54.8,30.26,North,360,1.0,6.0,97,0.00,,,0.00,Weather View 32 v70,2013-09-02 13:21:00,
2013-09-02 08:26:00,55.7,54.9,30.27,North,360,1.0,6.0,97,0.00,,,0.00,Weather View 32 v70,2013-09-02 13:26:00,
2013-09-02 08:31:00,55.9,55.1,30.27,North,360,0.0,6.0,97,0.00,,,0.00,Weather View 32 v70,2013-09-02 13:31:00,
2013-09-02 08:36:00,56.1,55.3,30.27,NNW,337,2.0,6.0,97,0.00,,,0.00,Weather View 32 v70,2013-09-02 13:36:00,
2013-09-02 08:41:00,56.8,56.0,30.27,NNW,337,2.0,6.0,97,0.00,,,0.00,Weather View 32 v70,2013-09-02 13:41:00,
2013-09-02 08:46:00,56.9,56.1,30.27,NW,315,2.0,6.0,97,0.00,,,0.00,Weather View 32 v70,2013-09-02 13:46:00,
2013-09-02 08:51:00,57.3,56.5,30.27,NW,315,2.0,6.0,97,0.00,,,0.00,Weather View 32 v70,2013-09-02 13:51:00,
2013-09-02 08:56:00,57.7,56.9,30.27,North,360,4.0,6.0,97,0.00,,,0.00,Weather View 32 v70,2013-09-02 13:56:00,
2013-09-02 09:01:00,58.2,57.6,30.26,NW,315,2.0,6.0,98,0.00,,,0.00,Weather View 32 v70,2013-09-02 14:01:00,
2013-09-02 09:06:00,58.8,58.2,30.27,NNW,337,1.0,6.0,98,0.00,,,0.00,Weather View 32 v70,2013-09-02 14:06:00,
2013-09-02 09:11:00,59.4,58.5,30.27,NW,315,3.0,6.0,97,0.00,,,0.00,Weather View 32 v70,2013-09-02 14:11:00,
2013-09-02 09:16:00,59.8,58.1,30.27,NW,315,6.0,6.0,94,0.00,,,0.00,Weather View 32 v70,2013-09-02 14:16:00,
2013-09-02 09:21:00,60.4,58.7,30.28,North,360,2.0,6.0,94,0.00,,,0.00,Weather View 32 v70,2013-09-02 14:21:00,
2013-09-02 09:26:00,60.9,58.2,30.28,NW,315,1.0,6.0,91,0.00,,,0.00,Weather View 32 v70,2013-09-02 14:26:00,
2013-09-02 09:31:00,61.5,58.2,30.28,NNW,337,3.0,7.0,89,0.00,,,0.00,Weather View 32 v70,2013-09-02 14:31:00,
2013-09-02 09:36:00,62.1,57.5,30.28,North,360,1.0,7.0,85,0.00,,,0.00,Weather View 32 v70,2013-09-02 14:36:00,
2013-09-02 09:41:00,62.0,57.1,30.28,NW,315,4.0,9.0,84,0.00,,,0.00,Weather View 32 v70,2013-09-02 14:41:00,
2013-09-02 09:46:00,62.4,57.8,30.28,NW,315,2.0,9.0,85,0.00,,,0.00,Weather View 32 v70,2013-09-02 14:46:00,
2013-09-02 09:51:00,62.9,57.0,30.28,North,360,0.0,9.0,81,0.00,,,0.00,Weather View 32 v70,2013-09-02 14:51:00,
2013-09-02 09:56:00,63.4,57.5,30.29,WNW,292,4.0,9.0,81,0.00,,,0.00,Weather View 32 v70,2013-09-02 14:56:00,
2013-09-02 10:01:00,63.2,58.6,30.29,NW,315,4.0,9.0,85,0.00,,,0.00,Weather View 32 v70,2013-09-02 15:01:00,
2013-09-02 10:06:00,63.4,58.1,30.29,NW,315,2.0,9.0,83,0.00,,,0.00,Weather View 32 v70,2013-09-02 15:06:00,
2013-09-02 10:11:00,63.8,57.8,30.29,SW,225,2.0,9.0,81,0.00,,,0.00,Weather View 32 v70,2013-09-02 15:11:00,
2013-09-02 10:16:00,63.9,58.3,30.29,West,270,2.0,9.0,82,0.00,,,0.00,Weather View 32 v70,2013-09-02 15:16:00,
2013-09-02 10:21:00,63.9,57.9,30.29,NW,315,2.0,9.0,81,0.00,,,0.00,Weather View 32 v70,2013-09-02 15:21:00,
2013-09-02 10:26:00,64.1,58.1,30.29,WNW,292,2.0,9.0,81,0.00,,,0.00,Weather View 32 v70,2013-09-02 15:26:00,
2013-09-02 10:32:00,64.3,57.6,30.29,NW,315,0.0,9.0,79,0.00,,,0.00,Weather View 32 v70,2013-09-02 15:32:00,
2013-09-02 10:37:00,64.6,58.3,30.29,NW,315,0.0,9.0,80,0.00,,,0.00,Weather View 32 v70,2013-09-02 15:37:00,
2013-09-02 10:42:00,65.3,58.6,30.29,NW,315,2.0,7.0,79,0.00,,,0.00,Weather View 32 v70,2013-09-02 15:42:00,
2013-09-02 10:47:00,65.2,57.8,30.29,NW,315,4.0,7.0,77,0.00,,,0.00,Weather View 32 v70,2013-09-02 15:47:00,
2013-09-02 10:52:00,65.1,57.0,30.29,NW,315,0.0,8.0,75,0.00,,,0.00,Weather View 32 v70,2013-09-02 15:52:00,
2013-09-02 10:57:00,65.6,57.8,30.29,WNW,292,2.0,8.0,76,0.00,,,0.00,Weather View 32 v70,2013-09-02 15:57:00,
2013-09-02 11:02:00,65.7,57.9,30.29,NW,315,4.0,8.0,76,0.00,,,0.00,Weather View 32 v70,2013-09-02 16:02:00,
2013-09-02 11:07:00,66.0,58.2,30.29,NW,315,2.0,8.0,76,0.00,,,0.00,Weather View 32 v70,2013-09-02 16:07:00,
2013-09-02 11:12:00,66.3,58.1,30.29,NW,315,6.0,8.0,75,0.00,,,0.00,Weather View 32 v70,2013-09-02 16:12:00,
2013-09-02 11:17:00,66.3,57.7,30.29,NW,315,5.0,8.0,74,0.00,,,0.00,Weather View 32 v70,2013-09-02 16:17:00,
2013-09-02 11:22:00,66.6,57.6,30.29,SSW,202,2.0,8.0,73,0.00,,,0.00,Weather View 32 v70,2013-09-02 16:22:00,
2013-09-02 11:27:00,67.0,58.0,30.29,NW,315,2.0,8.0,73,0.00,,,0.00,Weather View 32 v70,2013-09-02 16:27:00,
2013-09-02 11:32:00,66.8,57.5,30.29,West,270,3.0,8.0,72,0.00,,,0.00,Weather View 32 v70,2013-09-02 16:32:00,
2013-09-02 11:37:00,67.1,58.1,30.29,North,360,1.0,8.0,73,0.00,,,0.00,Weather View 32 v70,2013-09-02 16:37:00,
2013-09-02 11:42:00,68.1,57.1,30.29,NW,315,6.0,8.0,68,0.00,,,0.00,Weather View 32 v70,2013-09-02 16:42:00,
2013-09-02 11:47:00,68.3,57.7,30.29,NW,315,4.0,8.0,69,0.00,,,0.00,Weather View 32 v70,2013-09-02 16:47:00,
2013-09-02 11:52:00,68.5,57.9,30.29,West,270,2.0,8.0,69,0.00,,,0.00,Weather View 32 v70,2013-09-02 16:52:00,
2013-09-02 11:57:00,68.4,57.8,30.29,NW,315,6.0,8.0,69,0.00,,,0.00,Weather View 32 v70,2013-09-02 16:57:00,
2013-09-02 12:02:00,68.4,57.4,30.29,West,270,3.0,8.0,68,0.00,,,0.00,Weather View 32 v70,2013-09-02 17:02:00,
2013-09-02 12:07:00,68.7,57.7,30.28,WNW,292,4.0,8.0,68,0.00,,,0.00,Weather View 32 v70,2013-09-02 17:07:00,
2013-09-02 12:12:00,68.6,56.8,30.28,West,270,1.0,8.0,66,0.00,,,0.00,Weather View 32 v70,2013-09-02 17:12:00,
2013-09-02 12:17:00,69.0,58.8,30.28,WNW,292,5.0,8.0,70,0.00,,,0.00,Weather View 32 v70,2013-09-02 17:17:00,
2013-09-02 12:22:00,69.9,57.1,30.28,West,270,1.0,8.0,64,0.00,,,0.00,Weather View 32 v70,2013-09-02 17:22:00,
2013-09-02 12:27:00,70.7,56.5,30.28,West,270,1.0,8.0,61,0.00,,,0.00,Weather View 32 v70,2013-09-02 17:27:00,
2013-09-02 12:32:00,70.9,55.8,30.28,WNW,292,6.0,9.0,59,0.00,,,0.00,Weather View 32 v70,2013-09-02 17:32:00,
2013-09-02 12:37:00,70.5,55.0,30.28,NW,315,4.0,9.0,58,0.00,,,0.00,Weather View 32 v70,2013-09-02 17:37:00,
2013-09-02 12:42:00,70.9,54.9,30.28,NW,315,1.0,9.0,57,0.00,,,0.00,Weather View 32 v70,2013-09-02 17:42:00,
2013-09-02 12:47:00,70.9,56.3,30.28,West,270,1.0,9.0,60,0.00,,,0.00,Weather View 32 v70,2013-09-02 17:47:00,
2013-09-02 12:52:00,71.0,55.4,30.28,North,360,2.0,9.0,58,0.00,,,0.00,Weather View 32 v70,2013-09-02 17:52:00,
2013-09-02 12:57:00,71.6,55.5,30.28,NW,315,6.0,9.0,57,0.00,,,0.00,Weather View 32 v70,2013-09-02 17:57:00,
2013-09-02 13:03:00,71.7,57.9,30.28,NNW,337,0.0,9.0,62,0.00,,,0.00,Weather View 32 v70,2013-09-02 18:03:00,
2013-09-02 13:08:00,72.9,55.7,30.28,NNE,22,3.0,9.0,55,0.00,,,0.00,Weather View 32 v70,2013-09-02 18:08:00,
2013-09-02 13:13:00,72.7,57.0,30.27,NNE,22,2.0,9.0,58,0.00,,,0.00,Weather View 32 v70,2013-09-02 18:13:00,
2013-09-02 13:18:00,73.1,57.9,30.27,West,270,2.0,9.0,59,0.00,,,0.00,Weather View 32 v70,2013-09-02 18:18:00,
2013-09-02 13:23:00,73.1,58.3,30.28,NW,315,4.0,9.0,60,0.00,,,0.00,Weather View 32 v70,2013-09-02 18:23:00,
2013-09-02 13:28:00,72.7,57.5,30.27,NW,315,4.0,9.0,59,0.00,,,0.00,Weather View 32 v70,2013-09-02 18:28:00,
2013-09-02 13:33:00,72.9,53.1,30.27,North,360,2.0,9.0,50,0.00,,,0.00,Weather View 32 v70,2013-09-02 18:33:00,
2013-09-02 13:38:00,73.6,56.9,30.27,NE,45,0.0,9.0,56,0.00,,,0.00,Weather View 32 v70,2013-09-02 18:38:00,
2013-09-02 13:43:00,73.9,56.2,30.27,NW,315,2.0,9.0,54,0.00,,,0.00,Weather View 32 v70,2013-09-02 18:43:00,
2013-09-02 13:48:00,74.0,56.2,30.26,WNW,292,1.0,9.0,54,0.00,,,0.00,Weather View 32 v70,2013-09-02 18:48:00,
2013-09-02 13:53:00,74.6,55.2,30.26,NE,45,5.0,6.0,51,0.00,,,0.00,Weather View 32 v70,2013-09-02 18:53:00,
2013-09-02 13:58:00,74.3,57.0,30.26,NE,45,4.0,6.0,55,0.00,,,0.00,Weather View 32 v70,2013-09-02 18:58:00,
2013-09-02 14:03:00,74.5,56.7,30.26,West,270,1.0,6.0,54,0.00,,,0.00,Weather View 32 v70,2013-09-02 19:03:00,
2013-09-02 14:08:00,74.9,55.5,30.26,NNE,22,0.0,7.0,51,0.00,,,0.00,Weather View 32 v70,2013-09-02 19:08:00,
2013-09-02 14:13:00,75.5,56.0,30.26,NW,315,3.0,7.0,51,0.00,,,0.00,Weather View 32 v70,2013-09-02 19:13:00,
2013-09-02 14:18:00,75.2,55.2,30.26,NW,315,2.0,7.0,50,0.00,,,0.00,Weather View 32 v70,2013-09-02 19:18:00,
2013-09-02 14:23:00,74.8,57.0,30.26,NW,315,4.0,10.0,54,0.00,,,0.00,Weather View 32 v70,2013-09-02 19:23:00,
2013-09-02 14:28:00,74.5,55.1,30.26,NW,315,1.0,10.0,51,0.00,,,0.00,Weather View 32 v70,2013-09-02 19:28:00,
2013-09-02 14:33:00,75.2,52.9,30.26,NW,315,3.0,10.0,46,0.00,,,0.00,Weather View 32 v70,2013-09-02 19:33:00,
2013-09-02 14:38:00,74.8,53.2,30.25,North,360,3.0,10.0,47,0.00,,,0.00,Weather View 32 v70,2013-09-02 19:38:00,
2013-09-02 14:43:00,75.3,53.6,30.25,NW,315,1.0,10.0,47,0.00,,,0.00,Weather View 32 v70,2013-09-02 19:43:00,
2013-09-02 14:48:00,75.7,55.1,30.25,NW,315,0.0,10.0,49,0.00,,,0.00,Weather View 32 v70,2013-09-02 19:48:00,
2013-09-02 14:53:00,76.5,56.4,30.25,NE,45,1.0,10.0,50,0.00,,,0.00,Weather View 32 v70,2013-09-02 19:53:00,
2013-09-02 14:58:00,76.8,55.6,30.25,NW,315,1.0,10.0,48,0.00,,,0.00,Weather View 32 v70,2013-09-02 19:58:00,
2013-09-02 15:03:00,76.9,55.1,30.25,NE,45,1.0,10.0,47,0.00,,,0.00,Weather View 32 v70,2013-09-02 20:03:00,
2013-09-02 15:08:00,76.9,55.1,30.25,NE,45,1.0,10.0,47,0.00,,,0.00,Weather View 32 v70,2013-09-02 20:08:00,
2013-09-02 15:13:00,76.9,54.5,30.25,North,360,0.0,10.0,46,0.00,,,0.00,Weather View 32 v70,2013-09-02 20:13:00,
2013-09-02 15:18:00,77.3,55.4,30.25,North,360,2.0,10.0,47,0.00,,,0.00,Weather View 32 v70,2013-09-02 20:18:00,
2013-09-02 15:23:00,76.7,54.9,30.25,WNW,292,6.0,10.0,47,0.00,,,0.00,Weather View 32 v70,2013-09-02 20:23:00,
2013-09-02 15:28:00,75.9,56.4,30.25,SW,225,2.0,10.0,51,0.00,,,0.00,Weather View 32 v70,2013-09-02 20:28:00,
2013-09-02 15:33:00,75.3,53.6,30.25,West,270,4.0,10.0,47,0.00,,,0.00,Weather View 32 v70,2013-09-02 20:33:00,
2013-09-02 15:38:00,75.5,53.2,30.25,West,270,2.0,10.0,46,0.01,,,0.00,Weather View 32 v70,2013-09-02 20:38:00,
2013-09-02 15:43:00,76.3,55.7,30.24,NW,315,3.0,10.0,49,0.01,,,0.00,Weather View 32 v70,2013-09-02 20:43:00,
2013-09-02 15:48:00,76.3,55.1,30.24,NW,315,2.0,10.0,48,0.00,,,0.00,Weather View 32 v70,2013-09-02 20:48:00,
2013-09-02 15:53:00,75.9,54.7,30.25,NW,315,1.0,10.0,48,0.00,,,0.00,Weather View 32 v70,2013-09-02 20:53:00,
2013-09-02 15:58:00,76.7,54.9,30.25,NW,315,1.0,10.0,47,0.00,,,0.00,Weather View 32 v70,2013-09-02 20:58:00,
2013-09-02 16:04:00,78.4,54.6,30.24,WNW,292,1.0,10.0,44,0.00,,,0.00,Weather View 32 v70,2013-09-02 21:04:00,
2013-09-02 16:09:00,78.7,55.5,30.25,West,270,2.0,10.0,45,0.00,,,0.00,Weather View 32 v70,2013-09-02 21:09:00,
2013-09-02 16:14:00,79.3,56.7,30.25,WNW,292,4.0,10.0,46,0.00,,,0.00,Weather View 32 v70,2013-09-02 21:14:00,
2013-09-02 16:19:00,78.1,56.2,30.24,NW,315,2.0,10.0,47,0.00,,,0.00,Weather View 32 v70,2013-09-02 21:19:00,
2013-09-02 16:24:00,77.2,54.7,30.24,NW,315,2.0,9.0,46,0.00,,,0.00,Weather View 32 v70,2013-09-02 21:24:00,
2013-09-02 16:29:00,76.9,54.5,30.24,NW,315,3.0,9.0,46,0.00,,,0.00,Weather View 32 v70,2013-09-02 21:29:00,
2013-09-02 16:34:00,77.4,53.7,30.24,West,270,2.0,9.0,44,0.00,,,0.00,Weather View 32 v70,2013-09-02 21:34:00,
2013-09-02 16:39:00,77.8,54.1,30.24,WSW,247,2.0,9.0,44,0.00,,,0.00,Weather View 32 v70,2013-09-02 21:39:00,
2013-09-02 16:44:00,77.9,54.8,30.24,SW,225,1.0,9.0,45,0.00,,,0.00,Weather View 32 v70,2013-09-02 21:44:00,
2013-09-02 16:49:00,77.3,55.4,30.24,NW,315,1.0,9.0,47,0.00,,,0.00,Weather View 32 v70,2013-09-02 21:49:00,
2013-09-02 16:54:00,77.3,54.8,30.24,WNW,292,2.0,9.0,46,0.00,,,0.00,Weather View 32 v70,2013-09-02 21:54:00,
2013-09-02 16:59:00,77.5,55.6,30.24,NW,315,1.0,9.0,47,0.00,,,0.00,Weather View 32 v70,2013-09-02 21:59:00,
2013-09-02 17:04:00,78.5,55.3,30.24,West,270,1.0,9.0,45,0.00,,,0.00,Weather View 32 v70,2013-09-02 22:04:00,
2013-09-02 17:09:00,79.3,56.0,30.24,NW,315,3.0,9.0,45,0.00,,,0.00,Weather View 32 v70,2013-09-02 22:09:00,
2013-09-02 17:14:00,78.4,56.4,30.24,SW,225,1.0,9.0,47,0.00,,,0.00,Weather View 32 v70,2013-09-02 22:14:00,
2013-09-02 17:19:00,77.6,55.7,30.24,West,270,2.0,9.0,47,0.00,,,0.00,Weather View 32 v70,2013-09-02 22:19:00,
2013-09-02 17:24:00,77.4,54.9,30.24,WNW,292,2.0,6.0,46,0.00,,,0.00,Weather View 32 v70,2013-09-02 22:24:00,
2013-09-02 17:29:00,77.8,55.9,30.24,West,270,1.0,6.0,47,0.00,,,0.00,Weather View 32 v70,2013-09-02 22:29:00,
2013-09-02 17:34:00,78.2,56.3,30.24,West,270,1.0,6.0,47,0.00,,,0.00,Weather View 32 v70,2013-09-02 22:34:00,
2013-09-02 17:39:00,77.8,55.9,30.23,NW,315,2.0,6.0,47,0.00,,,0.00,Weather View 32 v70,2013-09-02 22:39:00,
2013-09-02 17:44:00,78.6,54.8,30.23,NW,315,0.0,6.0,44,0.00,,,0.00,Weather View 32 v70,2013-09-02 22:44:00,
2013-09-02 17:49:00,79.5,56.8,30.23,NW,315,2.0,6.0,46,0.00,,,0.00,Weather View 32 v70,2013-09-02 22:49:00,
2013-09-02 17:54:00,79.1,57.1,30.23,NW,315,2.0,6.0,47,0.00,,,0.00,Weather View 32 v70,2013-09-02 22:54:00,
2013-09-02 17:59:00,79.0,55.2,30.23,NE,45,2.0,6.0,44,0.00,,,0.00,Weather View 32 v70,2013-09-02 22:59:00,
2013-09-02 18:04:00,78.9,55.1,30.23,NW,315,1.0,6.0,44,0.00,,,0.00,Weather View 32 v70,2013-09-02 23:04:00,
2013-09-02 18:09:00,79.8,54.6,30.23,North,360,1.0,6.0,42,0.00,,,0.00,Weather View 32 v70,2013-09-02 23:09:00,
2013-09-02 18:14:00,79.7,55.1,30.23,North,360,0.0,6.0,43,0.00,,,0.00,Weather View 32 v70,2013-09-02 23:14:00,
2013-09-02 18:19:00,79.7,55.8,30.23,North,360,0.0,6.0,44,0.00,,,0.00,Weather View 32 v70,2013-09-02 23:19:00,
2013-09-02 18:24:00,80.1,55.5,30.23,North,360,1.0,6.0,43,0.01,,,0.00,Weather View 32 v70,2013-09-02 23:24:00,
2013-09-02 18:29:00,80.3,54.4,30.23,North,360,0.0,6.0,41,0.00,,,0.00,Weather View 32 v70,2013-09-02 23:29:00,
2013-09-02 18:34:00,80.4,55.1,30.23,North,360,0.0,6.0,42,0.00,,,0.00,Weather View 32 v70,2013-09-02 23:34:00,
2013-09-02 18:39:00,80.4,55.1,30.23,North,360,0.0,6.0,42,0.00,,,0.00,Weather View 32 v70,2013-09-02 23:39:00,
2013-09-02 18:44:00,80.2,54.9,30.23,NW,315,1.0,6.0,42,0.00,,,0.00,Weather View 32 v70,2013-09-02 23:44:00,
2013-09-02 18:49:00,80.5,55.2,30.23,NW,315,1.0,6.0,42,0.00,,,0.00,Weather View 32 v70,2013-09-02 23:49:00,
2013-09-02 18:54:00,79.9,57.2,30.23,NW,315,1.0,4.0,46,0.00,,,0.00,Weather View 32 v70,2013-09-02 23:54:00,
2013-09-02 18:59:00,79.8,55.9,30.23,NW,315,0.0,3.0,44,0.00,,,0.00,Weather View 32 v70,2013-09-02 23:59:00,
2013-09-02 19:04:00,79.7,55.1,30.23,NNW,337,0.0,2.0,43,0.00,,,0.00,Weather View 32 v70,2013-09-03 00:04:00,
2013-09-02 19:09:00,79.6,56.9,30.23,NNW,337,0.0,2.0,46,0.00,,,0.00,Weather View 32 v70,2013-09-03 00:09:00,
2013-09-02 19:14:00,79.7,55.8,30.23,NNW,337,0.0,2.0,44,0.00,,,0.00,Weather View 32 v70,2013-09-03 00:14:00,
2013-09-02 19:20:00,79.7,56.4,30.23,NNW,337,0.0,2.0,45,0.00,,,0.00,Weather View 32 v70,2013-09-03 00:20:00,
2013-09-02 19:25:00,78.9,56.3,30.23,NNW,337,0.0,2.0,46,0.00,,,0.00,Weather View 32 v70,2013-09-03 00:25:00,
2013-09-02 19:30:00,78.1,56.2,30.23,NNW,337,0.0,2.0,47,0.00,,,0.00,Weather View 32 v70,2013-09-03 00:30:00,
2013-09-02 19:35:00,76.9,54.5,30.23,NNW,337,0.0,2.0,46,0.00,,,0.00,Weather View 32 v70,2013-09-03 00:35:00,
2013-09-02 19:40:00,76.4,55.2,30.23,NNW,337,0.0,2.0,48,0.00,,,0.00,Weather View 32 v70,2013-09-03 00:40:00,
2013-09-02 19:45:00,75.5,55.5,30.22,NNW,337,0.0,2.0,50,0.00,,,0.00,Weather View 32 v70,2013-09-03 00:45:00,
2013-09-02 19:50:00,74.4,55.6,30.22,NNW,337,0.0,2.0,52,0.00,,,0.00,Weather View 32 v70,2013-09-03 00:50:00,
2013-09-02 19:55:00,73.4,55.7,30.22,NNW,337,0.0,2.0,54,0.00,,,0.00,Weather View 32 v70,2013-09-03 00:55:00,
2013-09-02 20:00:00,72.4,56.3,30.22,NNW,337,0.0,2.0,57,0.00,,,0.00,Weather View 32 v70,2013-09-03 01:00:00,
2013-09-02 20:05:00,71.4,56.7,30.22,NNW,337,0.0,2.0,60,0.00,,,0.00,Weather View 32 v70,2013-09-03 01:05:00,
2013-09-02 20:10:00,70.5,56.8,30.22,NNW,337,0.0,1.0,62,0.00,,,0.00,Weather View 32 v70,2013-09-03 01:10:00,
2013-09-02 20:15:00,69.8,56.6,30.22,NNW,337,0.0,0.0,63,0.00,,,0.00,Weather View 32 v70,2013-09-03 01:15:00,
2013-09-02 20:20:00,69.3,56.1,30.22,NNW,337,0.0,0.0,63,0.00,,,0.00,Weather View 32 v70,2013-09-03 01:20:00,
2013-09-02 20:25:00,68.7,56.0,30.21,NNW,337,0.0,0.0,64,0.00,,,0.00,Weather View 32 v70,2013-09-03 01:25:00,
2013-09-02 20:30:00,68.4,57.4,30.21,NNW,337,0.0,0.0,68,0.00,,,0.00,Weather View 32 v70,2013-09-03 01:30:00,
2013-09-02 20:35:00,68.0,57.8,30.21,NNW,337,0.0,0.0,70,0.00,,,0.00,Weather View 32 v70,2013-09-03 01:35:00,
2013-09-02 20:40:00,67.7,57.9,30.22,NNW,337,0.0,0.0,71,0.00,,,0.00,Weather View 32 v70,2013-09-03 01:40:00,
2013-09-02 20:45:00,67.4,57.6,30.22,NNW,337,0.0,0.0,71,0.00,,,0.00,Weather View 32 v70,2013-09-03 01:45:00,
2013-09-02 20:50:00,67.1,57.7,30.21,NNW,337,0.0,0.0,72,0.00,,,0.00,Weather View 32 v70,2013-09-03 01:50:00,
2013-09-02 20:55:00,66.7,57.7,30.22,NNW,337,0.0,0.0,73,0.00,,,0.00,Weather View 32 v70,2013-09-03 01:55:00,
2013-09-02 21:00:00,66.4,58.2,30.22,NNW,337,0.0,0.0,75,0.00,,,0.00,Weather View 32 v70,2013-09-03 02:00:00,
2013-09-02 21:05:00,66.2,59.1,30.22,NNW,337,0.0,0.0,78,0.00,,,0.00,Weather View 32 v70,2013-09-03 02:05:00,
2013-09-02 21:10:00,65.9,58.8,30.22,NNW,337,0.0,0.0,78,0.00,,,0.00,Weather View 32 v70,2013-09-03 02:10:00,
2013-09-02 21:15:00,65.9,57.7,30.22,NNW,337,0.0,0.0,75,0.00,,,0.00,Weather View 32 v70,2013-09-03 02:15:00,
2013-09-02 21:20:00,65.8,57.6,30.22,NNW,337,0.0,0.0,75,0.00,,,0.00,Weather View 32 v70,2013-09-03 02:20:00,
2013-09-02 21:25:00,65.6,57.4,30.22,NNW,337,0.0,0.0,75,0.00,,,0.00,Weather View 32 v70,2013-09-03 02:25:00,
2013-09-02 21:30:00,65.5,57.0,30.22,NNW,337,0.0,0.0,74,0.00,,,0.00,Weather View 32 v70,2013-09-03 02:30:00,
2013-09-02 21:35:00,65.4,57.2,30.22,NNW,337,0.0,0.0,75,0.00,,,0.00,Weather View 32 v70,2013-09-03 02:35:00,
2013-09-02 21:40:00,65.1,57.0,30.22,NNW,337,0.0,0.0,75,0.00,,,0.00,Weather View 32 v70,2013-09-03 02:40:00,
2013-09-02 21:45:00,64.7,56.9,30.22,NNW,337,0.0,0.0,76,0.00,,,0.00,Weather View 32 v70,2013-09-03 02:45:00,
2013-09-02 21:50:00,64.4,56.3,30.22,ENE,67,2.0,2.0,75,0.00,,,0.00,Weather View 32 v70,2013-09-03 02:50:00,
2013-09-02 21:55:00,64.1,56.7,30.22,ENE,67,0.0,2.0,77,0.00,,,0.00,Weather View 32 v70,2013-09-03 02:55:00,
2013-09-02 22:00:00,63.9,56.2,30.22,ENE,67,2.0,2.0,76,0.00,,,0.00,Weather View 32 v70,2013-09-03 03:00:00,
2013-09-02 22:05:00,63.9,56.5,30.22,ENE,67,1.0,2.0,77,0.00,,,0.00,Weather View 32 v70,2013-09-03 03:05:00,
2013-09-02 22:10:00,64.1,56.4,30.21,East,90,1.0,2.0,76,0.00,,,0.00,Weather View 32 v70,2013-09-03 03:10:00,
2013-09-02 22:15:00,64.0,55.9,30.21,East,90,1.0,2.0,75,0.00,,,0.00,Weather View 32 v70,2013-09-03 03:15:00,
2013-09-02 22:20:00,63.9,55.8,30.21,East,90,2.0,2.0,75,0.00,,,0.00,Weather View 32 v70,2013-09-03 03:20:00,
2013-09-02 22:25:00,63.9,56.2,30.21,East,90,0.0,2.0,76,0.00,,,0.00,Weather View 32 v70,2013-09-03 03:25:00,
2013-09-02 22:30:00,63.7,56.0,30.21,East,90,0.0,2.0,76,0.00,,,0.00,Weather View 32 v70,2013-09-03 03:30:00,
2013-09-02 22:35:00,63.6,56.2,30.21,East,90,0.0,2.0,77,0.00,,,0.00,Weather View 32 v70,2013-09-03 03:35:00,
2013-09-02 22:40:00,63.4,55.7,30.21,East,90,0.0,2.0,76,0.00,,,0.00,Weather View 32 v70,2013-09-03 03:40:00,
2013-09-02 22:45:00,63.2,56.2,30.21,East,90,0.0,2.0,78,0.00,,,0.00,Weather View 32 v70,2013-09-03 03:45:00,
2013-09-02 22:50:00,63.1,56.8,30.21,East,90,0.0,2.0,80,0.00,,,0.00,Weather View 32 v70,2013-09-03 03:50:00,
2013-09-02 22:55:00,63.1,56.8,30.20,East,90,0.0,2.0,80,0.00,,,0.00,Weather View 32 v70,2013-09-03 03:55:00,
2013-09-02 23:00:00,62.9,56.3,30.20,East,90,0.0,2.0,79,0.00,,,0.00,Weather View 32 v70,2013-09-03 04:00:00,
2013-09-02 23:01:00,62.9,56.3,30.20,East,90,0.0,2.0,79,0.00,,,0.00,Weather View 32 v70,2013-09-03 04:01:00,
2013-09-02 23:03:00,62.9,56.6,30.20,East,90,0.0,2.0,80,0.00,,,0.00,Weather View 32 v70,2013-09-03 04:03:00,
2013-09-02 23:08:00,62.8,56.9,30.20,East,90,0.0,2.0,81,0.00,,,0.00,Weather View 32 v70,2013-09-03 04:08:00,
2013-09-02 23:13:00,62.9,57.0,30.21,East,90,0.0,2.0,81,0.00,,,0.00,Weather View 32 v70,2013-09-03 04:13:00,
2013-09-02 23:18:00,62.7,57.1,30.21,East,90,0.0,2.0,82,0.00,,,0.00,Weather View 32 v70,2013-09-03 04:18:00,
2013-09-02 23:23:00,62.7,57.1,30.21,East,90,0.0,2.0,82,0.00,,,0.00,Weather View 32 v70,2013-09-03 04:23:00,
2013-09-02 23:28:00,62.5,57.3,30.21,East,90,0.0,1.0,83,0.00,,,0.00,Weather View 32 v70,2013-09-03 04:28:00,
2013-09-02 23:33:00,62.5,57.3,30.21,East,90,0.0,1.0,83,0.00,,,0.00,Weather View 32 v70,2013-09-03 04:33:00,
2013-09-02 23:38:00,62.6,57.3,30.21,East,90,0.0,1.0,83,0.00,,,0.00,Weather View 32 v70,2013-09-03 04:38:00,
2013-09-02 23:43:00,62.6,57.7,30.21,East,90,0.0,1.0,84,0.00,,,0.00,Weather View 32 v70,2013-09-03 04:43:00,
2013-09-02 23:48:00,62.6,57.3,30.20,East,90,0.0,1.0,83,0.00,,,0.00,Weather View 32 v70,2013-09-03 04:48:00,
2013-09-02 23:53:00,62.5,59.8,30.21,East,90,0.0,1.0,91,0.00,,,0.00,Weather View 32 v70,2013-09-03 04:53:00,
2013-09-02 23:58:00,61.9,59.8,30.20,SSW,202,0.0,1.0,93,0.00,,,0.00,Weather View 32 v70,2013-09-03 04:58:00,